When you browse on this site, cookies collect data to enhance your experience and personalize the content and advertising you see.
Visit our Privacy Policy to learn more. By continuing to use the site, you agree to this use of cookies and data.
  • En España
  • Lista de países
  • Para 7 días
  • Temperatura del agua
  • El tiempo en el mapa
  • Informadores
  • user-avatar
    Iniciar sesión

    Tiempo cada hora Shrewsbury

    Hoy, 21 Septiembre, Sábado

    Tiempo Temperatura Precipitaciones Viento Presión Humedad
    00:00 +10°C° 0 mm 4 mps 757 mmHg 82%
    01:00 +10°C° 0 mm 4 mps 756 mmHg 82%
    02:00 +10°C° 0 mm 4 mps 756 mmHg 83%
    03:00 +10°C° 0 mm 4 mps 755 mmHg 83%
    04:00 +10°C° 0 mm 3 mps 755 mmHg 83%
    05:00 +9°C° 0 mm 3 mps 754 mmHg 83%
    06:00 +9°C° 0 mm 3 mps 754 mmHg 83%
    07:00 +11°C° 0 mm 4 mps 753 mmHg 78%
    08:00 +13°C° 0 mm 4 mps 753 mmHg 74%
    09:00 +14°C° 0 mm 5 mps 753 mmHg 69%
    10:00 +16°C° 0 mm 5 mps 752 mmHg 66%
    11:00 +17°C° 0 mm 5 mps 752 mmHg 64%
    12:00 +20°C° 0 mm 5 mps 752 mmHg 61%
    13:00 +21°C° 0 mm 5 mps 751 mmHg 61%
    14:00 +21°C° 0 mm 5 mps 751 mmHg 61%
    15:00 +22°C° 0 mm 5 mps 750 mmHg 62%
    16:00 +21°C° 0 mm 5 mps 750 mmHg 66%
    17:00 +20°C° 0 mm 5 mps 749 mmHg 70%
    18:00 +19°C° 0 mm 4 mps 749 mmHg 74%
    19:00 +18°C° 0.1 mm 4 mps 749 mmHg 76%
    20:00 +18°C° 0.1 mm 4 mps 749 mmHg 78%
    21:00 +17°C° 0.1 mm 4 mps 748 mmHg 79%
    22:00 +16°C° 0.2 mm 5 mps 748 mmHg 81%
    23:00 +16°C° 0.2 mm 5 mps 748 mmHg 83%

    Mañana, 22 Septiembre, Domingo

    Tiempo Temperatura Precipitaciones Viento Presión Humedad
    00:00 +16°C° 0.2 mm 5 mps 747 mmHg 85%
    01:00 +17°C° 0.1 mm 4 mps 747 mmHg 88%
    02:00 +17°C° 0.1 mm 4 mps 746 mmHg 91%
    03:00 +16°C° 0.1 mm 3 mps 746 mmHg 94%
    04:00 +16°C° 0.1 mm 3 mps 746 mmHg 94%
    05:00 +17°C° 0.1 mm 3 mps 745 mmHg 95%
    06:00 +17°C° 0.1 mm 3 mps 745 mmHg 96%
    07:00 +17°C° 0.1 mm 4 mps 745 mmHg 94%
    08:00 +18°C° 0.1 mm 4 mps 745 mmHg 92%
    09:00 +19°C° 0.1 mm 5 mps 745 mmHg 91%
    10:00 +18°C° 0.9 mm 4 mps 745 mmHg 91%
    11:00 +17°C° 0.9 mm 3 mps 745 mmHg 91%
    12:00 +16°C° 0.9 mm 3 mps 745 mmHg 91%
    13:00 +17°C° 0.1 mm 3 mps 745 mmHg 87%
    14:00 +18°C° 0.1 mm 4 mps 745 mmHg 84%
    15:00 +18°C° 0.1 mm 4 mps 745 mmHg 80%
    16:00 +17°C° 0.3 mm 3 mps 745 mmHg 83%
    17:00 +16°C° 0.3 mm 3 mps 746 mmHg 87%
    18:00 +16°C° 0.3 mm 2 mps 746 mmHg 90%
    19:00 +15°C° 0 mm 2 mps 746 mmHg 91%
    20:00 +14°C° 0 mm 2 mps 747 mmHg 93%
    21:00 +13°C° 0 mm 2 mps 747 mmHg 94%
    22:00 +13°C° 0 mm 2 mps 747 mmHg 94%
    23:00 +13°C° 0 mm 2 mps 748 mmHg 95%

    Pasado mañana, 23 Septiembre, Lunes

    Tiempo Temperatura Precipitaciones Viento Presión Humedad
    00:00 +11°C° 0 mm 3 mps 748 mmHg 95%
    01:00 +11°C° 0 mm 3 mps 749 mmHg 95%
    02:00 +11°C° 0 mm 3 mps 749 mmHg 95%
    03:00 +11°C° 0 mm 3 mps 749 mmHg 95%
    04:00 +10°C° 0 mm 2 mps 749 mmHg 95%
    05:00 +10°C° 0 mm 2 mps 750 mmHg 95%
    06:00 +9°C° 0 mm 2 mps 750 mmHg 94%
    07:00 +11°C° 0 mm 3 mps 750 mmHg 90%
    08:00 +12°C° 0 mm 3 mps 750 mmHg 86%
    09:00 +14°C° 0 mm 4 mps 750 mmHg 83%
    10:00 +15°C° 0 mm 4 mps 750 mmHg 78%
    11:00 +16°C° 0 mm 5 mps 750 mmHg 73%
    12:00 +17°C° 0 mm 6 mps 750 mmHg 69%
    13:00 +16°C° 0.2 mm 6 mps 749 mmHg 75%
    14:00 +15°C° 0.2 mm 6 mps 749 mmHg 82%
    15:00 +14°C° 0.2 mm 6 mps 748 mmHg 88%
    16:00 +14°C° 0.5 mm 6 mps 748 mmHg 90%
    17:00 +14°C° 0.5 mm 7 mps 747 mmHg 92%
    18:00 +14°C° 0.5 mm 7 mps 747 mmHg 93%
    19:00 +14°C° 2.1 mm 6 mps 746 mmHg 94%
    20:00 +15°C° 2.1 mm 6 mps 746 mmHg 95%
    21:00 +15°C° 2.1 mm 6 mps 746 mmHg 96%
    22:00 +15°C° 1.4 mm 5 mps 746 mmHg 96%
    23:00 +15°C° 1.4 mm 4 mps 745 mmHg 96%

    24 Septiembre, Martes

    Tiempo Temperatura Precipitaciones Viento Presión Humedad
    00:00 +15°C° 1.4 mm 4 mps 745 mmHg 96%
    01:00 +16°C° 0.1 mm 3 mps 744 mmHg 97%
    02:00 +16°C° 0.1 mm 3 mps 744 mmHg 97%
    03:00 +16°C° 0.1 mm 3 mps 743 mmHg 97%
    04:00 +16°C° 0.5 mm 2 mps 743 mmHg 97%
    05:00 +16°C° 0.5 mm 2 mps 742 mmHg 98%
    06:00 +16°C° 0.5 mm 2 mps 741 mmHg 98%
    07:00 +16°C° 1.5 mm 2 mps 741 mmHg 98%
    08:00 +16°C° 1.5 mm 2 mps 741 mmHg 98%
    09:00 +16°C° 1.5 mm 2 mps 740 mmHg 98%
    10:00 +16°C° 3.2 mm 3 mps 740 mmHg 96%
    11:00 +14°C° 3.2 mm 5 mps 740 mmHg 95%
    12:00 +14°C° 3.2 mm 6 mps 740 mmHg 93%
    13:00 +15°C° 0.5 mm 6 mps 740 mmHg 90%
    14:00 +15°C° 0.5 mm 5 mps 740 mmHg 87%
    15:00 +17°C° 0.5 mm 4 mps 740 mmHg 84%
    16:00 +15°C° 0.1 mm 4 mps 740 mmHg 85%
    17:00 +15°C° 0.1 mm 4 mps 740 mmHg 87%
    18:00 +15°C° 0.1 mm 4 mps 740 mmHg 89%
    19:00 +14°C° 0 mm 4 mps 740 mmHg 90%
    20:00 +14°C° 0 mm 4 mps 740 mmHg 91%
    21:00 +13°C° 0 mm 3 mps 740 mmHg 93%
    22:00 +13°C° 0.1 mm 4 mps 739 mmHg 93%
    23:00 +13°C° 0.1 mm 5 mps 739 mmHg 93%

    25 Septiembre, Miércoles

    Tiempo Temperatura Precipitaciones Viento Presión Humedad
    00:00 +13°C° 0.1 mm 6 mps 738 mmHg 93%
    01:00 +13°C° 0.2 mm 5 mps 738 mmHg 94%
    02:00 +13°C° 0.2 mm 4 mps 738 mmHg 95%
    03:00 +13°C° 0.2 mm 3 mps 737 mmHg 96%
    04:00 +14°C° 0.1 mm 2 mps 738 mmHg 96%
    05:00 +14°C° 0.1 mm 2 mps 738 mmHg 97%
    06:00 +14°C° 0.1 mm 1 mps 738 mmHg 97%
    07:00 +15°C° 0 mm 2 mps 738 mmHg 94%
    08:00 +14°C° 0 mm 3 mps 739 mmHg 92%
    09:00 +15°C° 0 mm 4 mps 739 mmHg 89%
    10:00 +15°C° 0.1 mm 5 mps 740 mmHg 85%
    11:00 +16°C° 0.1 mm 5 mps 740 mmHg 81%
    12:00 +17°C° 0.1 mm 6 mps 741 mmHg 78%
    13:00 +17°C° 0 mm 6 mps 741 mmHg 76%
    14:00 +17°C° 0 mm 6 mps 741 mmHg 75%
    15:00 +17°C° 0 mm 5 mps 741 mmHg 74%
    16:00 +15°C° 0 mm 5 mps 742 mmHg 78%
    17:00 +14°C° 0 mm 4 mps 742 mmHg 82%
    18:00 +13°C° 0 mm 3 mps 742 mmHg 86%
    19:00 +13°C° 0 mm 3 mps 742 mmHg 89%
    20:00 +12°C° 0 mm 3 mps 743 mmHg 92%
    21:00 +11°C° 0 mm 3 mps 743 mmHg 95%
    22:00 +12°C° 0 mm 3 mps 743 mmHg 94%
    23:00 +12°C° 0 mm 3 mps 743 mmHg 93%

    26 Septiembre, Jueves

    Tiempo Temperatura Precipitaciones Viento Presión Humedad
    00:00 +13°C° 0 mm 3 mps 743 mmHg 92%
    01:00 +13°C° 0 mm 3 mps 744 mmHg 92%
    02:00 +12°C° 0 mm 4 mps 744 mmHg 91%
    03:00 +12°C° 0 mm 4 mps 744 mmHg 90%
    04:00 +11°C° 0 mm 4 mps 745 mmHg 89%
    05:00 +11°C° 0 mm 4 mps 745 mmHg 88%
    06:00 +10°C° 0 mm 4 mps 745 mmHg 87%
    07:00 +11°C° 0 mm 4 mps 746 mmHg 82%
    08:00 +12°C° 0 mm 5 mps 746 mmHg 78%
    09:00 +13°C° 0 mm 5 mps 747 mmHg 73%
    10:00 +14°C° 0.1 mm 5 mps 747 mmHg 71%
    11:00 +15°C° 0.1 mm 6 mps 747 mmHg 68%
    12:00 +15°C° 0.1 mm 6 mps 747 mmHg 66%
    13:00 +15°C° 0.1 mm 6 mps 747 mmHg 65%
    14:00 +15°C° 0.1 mm 6 mps 748 mmHg 64%
    15:00 +15°C° 0.1 mm 5 mps 748 mmHg 63%
    16:00 +14°C° 0 mm 5 mps 748 mmHg 69%
    17:00 +12°C° 0 mm 4 mps 748 mmHg 75%
    18:00 +11°C° 0 mm 3 mps 749 mmHg 80%
    19:00 +10°C° 0 mm 3 mps 749 mmHg 83%
    20:00 +10°C° 0 mm 3 mps 750 mmHg 86%
    21:00 +9°C° 0 mm 3 mps 750 mmHg 88%
    22:00 +9°C° 0 mm 3 mps 750 mmHg 89%
    23:00 +9°C° 0 mm 3 mps 750 mmHg 90%
    Mostrar más